Location: Bennemühlen
(52.5740°N, 9.7135°E)
Time: 16:08:49
(UTC+00:00)

SR - Pass Details

Date: 20 February 2026
Orbit: 572 x 848 km, 66.7° (Epoch: 8 March)

Event Time Altitude Azimuth Distance (km) Brightness Sun altitude
Exits shadow 04:29:57 41° 256° (WSW) 874 ? -18.5°
Maximum altitude 04:31:13 60° 314° (NW) 701 ? -18.3°
Drops below altitude 10° 04:35:45 10° 35° (NE) 2,042 ? -17.6°
Sets 04:38:09 0° 39° (NE) 3,000 ? -17.3°
